Location: Unspecified
(0.0000°N, 0.0000°E)
Time: 01:22:57
(UTC+00:00)

Transit 2A - Visible Passes

Search period start: 26 May 2019 00:00
Search period end: 05 June 2019 00:00
Orbit: 592 x 967 km, 66.7° (Epoch: 25 May)

Date Brightness Start Highest point End Pass type
(mag) Time Alt. Az. Time Alt. Az. Time Alt. Az.
26 May 6.3 05:15:31 10° SSW 05:21:07 89° ESE 05:27:15 10° NNE visible
27 May 6.9 04:41:38 10° S 04:47:05 55° ESE 04:53:01 10° NNE visible
28 May 7.7 04:08:36 13° S 04:13:04 33° ESE 04:18:26 10° NE visible
29 May 8.3 03:36:21 15° SE 03:39:03 21° ESE 03:43:23 10° ENE visible
29 May 7.1 05:16:57 10° SW 05:21:58 32° WNW 05:27:21 10° N visible
30 May 8.8 03:04:03 12° ESE 03:05:02 12° ESE 03:07:15 10° E visible
30 May 6.5 04:44:36 24° SW 04:47:51 51° WNW 04:53:48 10° N visible
31 May 6.1 04:12:16 52° SSW 04:13:46 83° WNW 04:19:56 10° NNE visible
01 Jun 6.6 03:39:53 61° E 03:39:53 61° E 03:45:46 10° NNE visible
01 Jun 8.2 05:21:55 10° WNW 05:22:58 10° WNW 05:24:01 10° WNW visible
02 Jun 7.9 03:07:26 31° ENE 03:07:26 31° ENE 03:11:17 10° NE visible
02 Jun 7.8 04:47:58 18° WNW 04:48:47 18° WNW 04:52:48 10° NNW visible
03 Jun 8.8 02:34:56 15° ENE 02:34:56 15° ENE 02:36:21 10° ENE visible
03 Jun 7.4 04:15:28 28° NW 04:15:28 28° NW 04:19:53 10° N visible
04 Jun 7.5 03:42:54 31° NNW 03:42:54 31° NNW 03:46:25 10° N visible
